Regional Weather Roundup
Issued by NWS

Home | Current Version | Previous Version | Text Only | Print | Product List | Glossary Off
Versions: 1 2 3 4 5 6 7 8 9 10 11 12 13 14 15 16 17 18 19 20 21 22 23 24 25 26 27 28 29 30 31 32 33 34 35 36 37 38 39 40 41 42 43 44 45 46 47 48 49 50

000
ASUS43 KMPX 280601
RWRMN
WEATHER ROUNDUP FOR MINNESOTA
NATIONAL WEATHER SERVICE TWIN CITIES/CHANHASSEN MN
1200 AM CST SAT FEB 28 2015


NOTE: "FAIR" INDICATES FEW OR NO CLOUDS BELOW 12,000 FEET WITH NO
SIGNIFICANT WEATHER AND/OR OBSTRUCTIONS TO VISIBILITY. N/A MEANS
CURRENT SKY AND/OR WEATHER CONDITIONS ARE NOT AVAILABLE.

MNZ060>063-068>070-280700-
   Twin Cities Metro

CITY           SKY/WX    TMP DP  RH WIND       PRES   REMARKS
TWIN CITIES    CLEAR      5  -2  72 S6        30.54R WCI  -6
6HR MIN TEMP:   5; 6HR MAX TEMP:  12;

ST PAUL        CLEAR      3  -2  79 S7        30.56S WCI  -9
CRYSTAL        CLEAR      6  -2  69 S6        30.52R WCI  -4
BLAINE         CLEAR      7   1  78 S7        30.51S WCI  -5
LAKEVILLE      CLEAR      0  -6  78 SW1       30.53S
EDEN PRAIRIE   CLEAR      2  -4  76 S7        30.52S WCI -11
6HR MIN TEMP:   2; 6HR MAX TEMP:  10;

SOUTH ST PAUL  CLEAR      4  -2  74 S3        30.55R
LAKE ELMO      FAIR       3  -2  78 S6        30.54S WCI  -8
$$
MNZ001>005-007-008-013>017-022>024-027-028-280700-
   Northwest Minnesota

CITY           SKY/WX    TMP DP  RH WIND       PRES   REMARKS
BEMIDJI        PTCLDY     2  -5  72 S3        30.33S
HALLOCK        PTCLDY     1  -4  78 S15       30.30F WCI -18
ROSEAU         FAIR       7   0  72 SW12      30.31S WCI  -9
WARROAD        PTCLDY     3  -2  78 SW7       30.31S WCI  -9
THIEF RVR FALL PTCLDY     1  -6  71 S8        30.32F WCI -12
CROOKSTON      PTCLDY     1  -4  78 S9        30.36F WCI -14
FOSSTON        PTCLDY     3  -4  72 S14       30.34S WCI -15
DETROIT LAKES  PTCLDY     3  -4  72 S5        30.36S WCI  -6
MOORHEAD       CLEAR      7   1  78 S9        30.37F WCI  -7
PARK RAPIDS    CLEAR      0  -7  72 S6        30.35F WCI -12
MAHNOMEN       FAIR       5  -3  69 S13       30.35S WCI -12
$$
MNZ006-009>011-018-025>026-280700-
   North Central Minnesota

CITY           SKY/WX    TMP DP  RH WIND       PRES   REMARKS
BAUDETTE       MOCLDY     0  -7  72 S6        30.31S WCI -12
FLAG ISLAND    PTCLDY    -4  -8  84 S8        30.28S WCI -19
INTL FALLS     CLEAR    -11 -17  75 SW5       30.33S WCI -23
6HR MIN TEMP: -11; 6HR MAX TEMP:  14;

WASKISH        PTCLDY     3  -4  72 CALM      30.34S
BIG FORK       CLEAR     -8 -17  65 CALM      30.35S
LONGVILLE      CLEAR      0  -8  71 CALM      30.38F
GRAND RAPIDS   CLEAR      7  -4  61 SW7       30.36S WCI  -5
CRANE LAKE     CLEAR    -15 -20  76 CALM      30.38S
ORR            PTCLDY     1 -15  46 CALM      30.32S
COOK           PTCLDY     1 -11  55 CALM      30.36R
WALKER         FAIR       4  -5  65 SW5       30.36F WCI  -5
$$
MNZ012-019>021-037-280700-
   Northeast Minnesota

CITY           SKY/WX    TMP DP  RH WIND       PRES   REMARKS
DULUTH         CLEAR      6  -6  57 SW9       30.39R WCI  -8
6HR MIN TEMP:   5; 6HR MAX TEMP:  16;

ELY            CLEAR      1 -11  55 SW1       30.35R
HIBBING        PTCLDY   -11 -19  68 CALM      30.37R
EVELETH        FAIR      -2  -9  71 CALM      30.38R
DULUTH HARBOR  CLEAR      9  -2  61 SW12      30.48R WCI  -6
TWO HARBORS    CLEAR      7  -6  56 SW5       30.39S WCI  -2
SILVER BAY     CLEAR      5  -8  56 CALM      30.38S
GRAND MARAIS     N/A     11  -7  44 W8        30.40S WCI  -1
G MARAIS ARPRT CLEAR      3 -13  47 W5        30.30R WCI  -6
$$
MNZ029>031-032-039>041-046>048-054>057-064-280700-
   West Central Minnesota

CITY           SKY/WX    TMP DP  RH WIND       PRES   REMARKS
FERGUS FALLS   CLEAR      1  -6  71 S10       30.43F WCI -14
WHEATON        FAIR       1  -4  78 SE13      30.41F WCI -16
MORRIS         CLEAR      0  -6  78 S9        30.40F WCI -16
ALEXANDRIA     CLEAR      4  -3  73 S9        30.40S WCI -10
ELBOW LAKE     FAIR       1  -4  78 S10       30.39F WCI -15
WADENA         CLEAR     -4  -9  77 S6        30.38S WCI -16
APPLETON       FAIR       3  -2  78 S8        30.43F WCI -10
BENSON         CLEAR      1  -4  78 S8        30.43F WCI -12
ORTONVILLE     FAIR       0  -6  78 SE6       30.40F WCI -12
MADISON        CLEAR      1  -6  71 S6        30.43F WCI -10
WILLMAR        FAIR       0  -8  71 CALM      30.46F
$$
MNZ033>034-036-042>043-049>051-058-059-280700-
   Central Minnesota

CITY           SKY/WX    TMP DP  RH WIND       PRES   REMARKS
ST CLOUD       CLEAR      1  -4  79 S7        30.47S WCI -12
6HR MIN TEMP:   1; 6HR MAX TEMP:  14;

SAUK CENTRE    FAIR       1  -3  83 S5        30.43S WCI  -9
PAYNESVILLE    CLEAR      1  -4  82 SE6       30.45F WCI -11
AITKIN         CLEAR      3  -8  60 S3        30.41S
PINE RIVER     CLEAR     -6  -9  84 CALM      30.42S
BRAINERD       CLEAR      2  -6  69 S6        30.42S WCI  -9
STAPLES        CLEAR     -2  -8  78 S5        30.39S WCI -12
LONG PRAIRIE   FAIR       1  -4  78 S6        30.42R WCI -10
LITTLE FALLS   CLEAR      1  -4  78 S5        30.45S WCI  -8
LITCHFIELD     CLEAR      1  -2  85 CALM      30.47F
MAPLE LAKE     CLEAR      5   0  80 S3        30.49F
$$
MNZ037-044-045-052-053-280700-
   East Central Minnesota

CITY           SKY/WX    TMP DP  RH WIND       PRES   REMARKS
PRINCETON      CLEAR      1  -2  85 CALM      30.48S
MORA           CLEAR      3  -4  72 CALM      30.49S
RUSH CITY      PTCLDY     2  -3  79 S3        30.50S
MOOSE LAKE     CLEAR      0  -8  71 CALM      30.44R
HINCKLEY       FAIR       3  -4  72 S5        30.48R WCI  -6
CLOQUET        CLEAR      3  -8  60 SW7       30.41S WCI  -9
MCGREGOR       PTCLDY     3  -4  72 CALM      30.42S
$$
MNZ071>073-080-081-089-090-097-098-280700-
   Southwest Minnesota

CITY           SKY/WX    TMP DP  RH WIND       PRES   REMARKS
MONTEVIDEO     CLEAR      3  -2  78 SW6       30.45F WCI  -8
GRANITE FALLS  CLEAR     -1  -5  80 SE9       30.48S WCI -16
CANBY          CLEAR      7   1  74 S7        30.42F WCI  -4
MARSHALL       CLEAR      3  -6  66 SW15      30.44S WCI -15
REDWOOD FALLS  CLEAR     -1  -6  79 S9        30.48F WCI -16
OLIVIA         CLEAR      1  -4  78 S5        30.47S WCI  -8
PIPESTONE      CLEAR      1  -4  78 S10       30.39F WCI -14
WINDOM         CLEAR     -2  -6  84 CALM      30.45F
WORTHINGTON    CLEAR     19 -11  25 S12       30.45F WCI   7
JACKSON        CLEAR      1  -6  71 S9        30.46F WCI -14
TRACY          CLEAR      3  -4  73 S14       30.44F WCI -15
SLAYTON        CLEAR      0  -7  73 S10       30.42S WCI -16
$$
MNZ065>067-074>077-082>085-091>093-280700-
   South Central Minnesota

CITY           SKY/WX    TMP DP  RH WIND       PRES   REMARKS
MANKATO        CLEAR      0  -9  65 S8        30.51F WCI -15
NEW ULM        CLEAR     -2  -8  78 S7        30.50F WCI -16
ST JAMES       CLEAR      0  -6  78 S7        30.51F WCI -13
FAIRMONT       FAIR      -6 -13  71 S8        30.48F WCI -21
GLENCOE        CLEAR      3  -2  82 S6        30.50S WCI  -8
FARIBAULT      CLEAR     -2  -6  84 S5        30.53S WCI -12
OWATONNA       PTCLDY     0  -6  78 S9        30.52S WCI -16
WASECA         CLEAR     -4  -8  84 S7        30.54F WCI -18
ALBERT LEA     PTCLDY    -2  -6  84 S5        30.52F WCI -12
$$
MNZ078>079-086>088-094>096-280700-
   Southeast Minnesota

CITY           SKY/WX    TMP DP  RH WIND       PRES   REMARKS
ROCHESTER      CLEAR     -9 -12  87 S8        30.52F WCI -25
6HR MIN TEMP: -10; 6HR MAX TEMP:   0;

RED WING       CLEAR     -2  -8  78 CALM      30.56S
STANTON        CLEAR      1  -4  77 S6        30.53S WCI -10
DODGE CENTER   PTCLDY     0  -4  85 SW14      30.50F WCI -19
WINONA         PTCLDY     3  -4  72 W3        30.62S
AUSTIN         PTCLDY    -8 -11  84 CALM      30.53F
PRESTON        PTCLDY    -6  -9  83 SW5       30.54F WCI -16
$$
ABBREVIATIONS USED IN REMARKS
   TC - TEMPERATURES IN CELSIUS
  WCI - WIND CHILL INDEX
   HX - HEAT INDEX
  VSB - VISIBILITY
$$



USA.gov is the U.S. government's official web portal to all federal, state and local government web resources and services.